STARLINK-32949, 63145

Orbit data source: Space-Track

STARLINK-32949, 63145 is a payload satellite owned by SpaceX/Seattle (US) in LEO that was launched on Mon, 03 Mar 2025 UTC via an FALCON 9 launch vehicle from the Air Force Eastern Test Range (AFETR). Payload-class satellites include a variety of spacecraft equipped with specific instruments for various scientific and technological missions. These include communications satellites like Starlink; space stations such as the ISS; scientific satellites like the Hubble; Earth observation satellites from companies like Planet Labs, Umbra, and HawkEye 360; GPS; miniature CubeSats for education and research; and military/defense satellites.

Loading next visibility...
Identifier
63145, 2025-043P
Orbit
LEO
Country
Flag of USUS
Related business
Manufacturer
SpaceX/Seattle
Mission
Operational Commercial Communications
Bus & Motor
STARLINK V2M, Unknown motor
Mass
730 kg wet, ~700 kg dry
Launch date (UTC)
2025-03-03 (11 months ago)
Launch vehicle
FALCON 9
Launch site
Air Force Eastern Test Range (AFETR)
Object type
Payload
Rocket body
Debris
Shape & HBR
Box + 2 Pan, 17.7 m
Radar Cross Section
33.884 m², Large (>1 m²)

Expand to show TLE details & history
Last TLE update: 14 hours ago

TLE from 14 hours ago
0 STARLINK-32949
1 63145U 25043P   26036.81058759  .00043328  00000-0  15741-2 0  9993
2 63145  43.0002 196.5394 0001767 277.5039  82.5612 15.27594774 53059
Epoch: 2026-02-05T19:27Z
TLE epoch observation values (Epoch: 2026-02-05T19:27:14.767Z)
Latitude
-0.00002°
Longitude
128.77038°
Altitude
482.624 km
Speed
7.626 km/s
True Right ascension
13h 06m 09s
True Declination
0° 00' 00"
Sunlit
Object was in full shadow at epoch
Visualization orbit readout
Latitude
Unknown
Longitude
Unknown
Altitude
Unknown
Speed
Unknown
Apparent Right ascension
Unknown
Apparent Declination
Unknown
Sunlit
N/A
Visualization observer readout
Local Sidereal Time
11:35:33
Azimuth
Unknown
Elevation
Unknown
Doppler factor
Unknown
Orbital elements
Apogee altitude
486.163 km
Perigee altitude
483.737 km
Semi-major axis
6,863.087 km
Eccentricity
0.00018
Inclination
43.0002°
RAAN
196.5394°
Arg. of periapsis
277.5039°
True anomaly
82.58128°
Mean anomaly
82.5612°
Eccentric anomaly
82.57124°
Mean motion
3.81737 °/min
Orbital period
94.31 mins
BSTAR
0.0015741
Loading maneuver chart data...
Computing Atmospheric mass density...
Loading historical data...
Loading historical data...
Loading historical data...
Loading historical data...
Loading historical data...
Loading historical data...
Loading historical data...

Documentation

Showing up to 5 results
|